When you browse on this site, cookies collect data to enhance your experience and personalize the content and advertising you see.
Visit our Privacy Policy to learn more. By continuing to use the site, you agree to this use of cookies and data.
  • In Slovakia
  • List of Countries
  • For 7 days
  • Water Temperature
  • Satellite Maps
  • Weather Map
  • Weather Widgets
  • user-avatar
    Login

    Hourly Weather Urkarah

    Today, 26 April, Friday

    Time Temperature Precipitation Wind Pressure Humidity
    00:00 +3°C° 0 mm 2 mps 655 mmHg 68%
    01:00 +3°C° 0 mm 2 mps 655 mmHg 66%
    02:00 +3°C° 0 mm 2 mps 655 mmHg 63%
    03:00 +3°C° 0 mm 2 mps 654 mmHg 61%
    04:00 +4°C° 0 mm 2 mps 655 mmHg 61%
    05:00 +4°C° 0 mm 2 mps 655 mmHg 60%
    06:00 +5°C° 0 mm 2 mps 655 mmHg 60%
    07:00 +7°C° 0 mm 2 mps 656 mmHg 56%
    08:00 +10°C° 0 mm 1 mps 656 mmHg 52%
    09:00 +12°C° 0 mm 1 mps 657 mmHg 47%
    10:00 +13°C° 0.1 mm 2 mps 657 mmHg 48%
    11:00 +13°C° 0.1 mm 2 mps 657 mmHg 49%
    12:00 +12°C° 0.1 mm 3 mps 656 mmHg 50%
    13:00 +12°C° 0.3 mm 3 mps 656 mmHg 51%
    14:00 +12°C° 0.3 mm 3 mps 656 mmHg 52%
    15:00 +12°C° 0.3 mm 3 mps 656 mmHg 53%
    16:00 +11°C° 0.1 mm 3 mps 655 mmHg 58%
    17:00 +10°C° 0.1 mm 2 mps 655 mmHg 62%
    18:00 +9°C° 0.1 mm 2 mps 654 mmHg 67%
    19:00 +8°C° 0 mm 2 mps 654 mmHg 68%
    20:00 +7°C° 0 mm 2 mps 654 mmHg 69%
    21:00 +6°C° 0 mm 2 mps 654 mmHg 69%
    22:00 +6°C° 0 mm 2 mps 654 mmHg 67%
    23:00 +5°C° 0 mm 2 mps 653 mmHg 65%

    Tomorrow, 27 April, Saturday

    Time Temperature Precipitation Wind Pressure Humidity
    00:00 +5°C° 0 mm 2 mps 653 mmHg 63%
    01:00 +5°C° 0 mm 2 mps 653 mmHg 62%
    02:00 +5°C° 0 mm 2 mps 653 mmHg 60%
    03:00 +5°C° 0 mm 2 mps 653 mmHg 58%
    04:00 +5°C° 0 mm 2 mps 653 mmHg 57%
    05:00 +6°C° 0 mm 2 mps 653 mmHg 55%
    06:00 +6°C° 0 mm 2 mps 653 mmHg 54%
    07:00 +8°C° 0 mm 2 mps 654 mmHg 47%
    08:00 +10°C° 0 mm 2 mps 654 mmHg 40%
    09:00 +13°C° 0 mm 2 mps 655 mmHg 33%
    10:00 +14°C° 0 mm 2 mps 655 mmHg 33%
    11:00 +14°C° 0 mm 3 mps 655 mmHg 32%
    12:00 +14°C° 0 mm 3 mps 655 mmHg 31%
    13:00 +14°C° 0 mm 3 mps 654 mmHg 34%
    14:00 +14°C° 0 mm 3 mps 654 mmHg 36%
    15:00 +14°C° 0 mm 3 mps 653 mmHg 38%
    16:00 +14°C° 0 mm 2 mps 653 mmHg 45%
    17:00 +13°C° 0 mm 2 mps 652 mmHg 52%
    18:00 +11°C° 0 mm 1 mps 652 mmHg 59%
    19:00 +9°C° 0 mm 2 mps 651 mmHg 59%
    20:00 +8°C° 0 mm 2 mps 651 mmHg 60%
    21:00 +7°C° 0 mm 2 mps 651 mmHg 60%
    22:00 +7°C° 0 mm 2 mps 651 mmHg 59%
    23:00 +7°C° 0 mm 2 mps 651 mmHg 57%

    Day after tomorrow, 28 April, Sunday

    Time Temperature Precipitation Wind Pressure Humidity
    00:00 +7°C° 0 mm 2 mps 650 mmHg 56%
    01:00 +7°C° 0 mm 2 mps 650 mmHg 53%
    02:00 +6°C° 0 mm 2 mps 650 mmHg 50%
    03:00 +6°C° 0 mm 2 mps 649 mmHg 48%
    04:00 +7°C° 0 mm 2 mps 649 mmHg 47%
    05:00 +7°C° 0 mm 2 mps 649 mmHg 47%
    06:00 +7°C° 0 mm 2 mps 649 mmHg 46%
    07:00 +9°C° 0 mm 2 mps 650 mmHg 42%
    08:00 +12°C° 0 mm 2 mps 650 mmHg 38%
    09:00 +14°C° 0 mm 2 mps 651 mmHg 35%
    10:00 +15°C° 0 mm 2 mps 651 mmHg 37%
    11:00 +15°C° 0 mm 2 mps 651 mmHg 39%
    12:00 +16°C° 0 mm 2 mps 651 mmHg 42%
    13:00 +15°C° 0.6 mm 2 mps 650 mmHg 46%
    14:00 +15°C° 0.6 mm 2 mps 650 mmHg 51%
    15:00 +14°C° 0.6 mm 2 mps 649 mmHg 56%
    16:00 +13°C° 1.2 mm 1 mps 649 mmHg 62%
    17:00 +12°C° 1.2 mm 1 mps 649 mmHg 67%
    18:00 +10°C° 1.2 mm 0 mps 648 mmHg 73%
    19:00 +11°C° 0.3 mm 1 mps 649 mmHg 72%
    20:00 +10°C° 0.3 mm 1 mps 649 mmHg 71%
    21:00 +9°C° 0.3 mm 2 mps 649 mmHg 71%
    22:00 +8°C° 0 mm 2 mps 649 mmHg 70%
    23:00 +8°C° 0 mm 2 mps 648 mmHg 68%

    29 April, Monday

    Time Temperature Precipitation Wind Pressure Humidity
    00:00 +8°C° 0 mm 2 mps 648 mmHg 67%
    01:00 +7°C° 0 mm 2 mps 648 mmHg 66%
    02:00 +7°C° 0 mm 2 mps 648 mmHg 64%
    03:00 +7°C° 0 mm 2 mps 648 mmHg 62%
    04:00 +7°C° 0 mm 2 mps 648 mmHg 61%
    05:00 +7°C° 0 mm 2 mps 648 mmHg 61%
    06:00 +8°C° 0 mm 2 mps 648 mmHg 60%
    07:00 +10°C° 0 mm 2 mps 649 mmHg 54%
    08:00 +13°C° 0 mm 1 mps 650 mmHg 48%
    09:00 +15°C° 0 mm 1 mps 651 mmHg 42%
    10:00 +16°C° 0 mm 2 mps 651 mmHg 42%
    11:00 +16°C° 0 mm 2 mps 651 mmHg 43%
    12:00 +17°C° 0 mm 3 mps 651 mmHg 43%
    13:00 +17°C° 0 mm 3 mps 651 mmHg 45%
    14:00 +16°C° 0 mm 3 mps 651 mmHg 48%
    15:00 +16°C° 0 mm 3 mps 650 mmHg 50%
    16:00 +15°C° 0.1 mm 2 mps 650 mmHg 55%
    17:00 +14°C° 0.1 mm 2 mps 650 mmHg 61%
    18:00 +13°C° 0.1 mm 1 mps 650 mmHg 66%
    19:00 +12°C° 0.1 mm 1 mps 649 mmHg 68%
    20:00 +11°C° 0.1 mm 1 mps 649 mmHg 70%
    21:00 +10°C° 0.1 mm 1 mps 649 mmHg 72%
    22:00 +10°C° 0 mm 1 mps 649 mmHg 70%
    23:00 +10°C° 0 mm 1 mps 649 mmHg 68%

    30 April, Tuesday

    Time Temperature Precipitation Wind Pressure Humidity
    00:00 +10°C° 0 mm 1 mps 649 mmHg 66%
    01:00 +10°C° 0 mm 1 mps 649 mmHg 65%
    02:00 +10°C° 0 mm 1 mps 649 mmHg 63%
    03:00 +10°C° 0 mm 1 mps 649 mmHg 61%
    04:00 +10°C° 0 mm 1 mps 649 mmHg 62%
    05:00 +10°C° 0 mm 1 mps 650 mmHg 62%
    06:00 +10°C° 0 mm 1 mps 650 mmHg 62%
    07:00 +12°C° 0 mm 2 mps 650 mmHg 60%
    08:00 +13°C° 0 mm 2 mps 651 mmHg 58%
    09:00 +14°C° 0 mm 2 mps 651 mmHg 56%
    10:00 +14°C° 0.2 mm 2 mps 651 mmHg 60%
    11:00 +14°C° 0.2 mm 2 mps 651 mmHg 63%
    12:00 +13°C° 0.2 mm 2 mps 651 mmHg 67%
    13:00 +13°C° 0.2 mm 2 mps 651 mmHg 67%
    14:00 +14°C° 0.2 mm 2 mps 651 mmHg 67%
    15:00 +14°C° 0.2 mm 2 mps 651 mmHg 66%
    16:00 +13°C° 0.3 mm 2 mps 650 mmHg 70%
    17:00 +12°C° 0.3 mm 1 mps 650 mmHg 74%
    18:00 +10°C° 0.3 mm 0 mps 650 mmHg 78%
    19:00 +11°C° 0 mm 1 mps 650 mmHg 77%
    20:00 +10°C° 0 mm 1 mps 650 mmHg 76%
    21:00 +10°C° 0 mm 1 mps 650 mmHg 75%
    22:00 +8°C° 0 mm 2 mps 649 mmHg 73%
    23:00 +8°C° 0 mm 2 mps 649 mmHg 70%

    1 May, Wednesday

    Time Temperature Precipitation Wind Pressure Humidity
    00:00 +8°C° 0 mm 2 mps 649 mmHg 68%
    01:00 +8°C° 0 mm 2 mps 649 mmHg 66%
    02:00 +8°C° 0 mm 2 mps 648 mmHg 64%
    03:00 +8°C° 0 mm 2 mps 648 mmHg 61%
    04:00 +8°C° 0 mm 2 mps 648 mmHg 61%
    05:00 +9°C° 0 mm 2 mps 648 mmHg 60%
    06:00 +9°C° 0 mm 2 mps 649 mmHg 59%
    07:00 +13°C° 0 mm 2 mps 649 mmHg 53%
    08:00 +15°C° 0 mm 1 mps 650 mmHg 47%
    09:00 +19°C° 0 mm 1 mps 650 mmHg 41%
    10:00 +19°C° 0 mm 1 mps 650 mmHg 41%
    11:00 +19°C° 0 mm 2 mps 650 mmHg 41%
    12:00 +19°C° 0 mm 2 mps 650 mmHg 42%
    13:00 +19°C° 0.1 mm 2 mps 650 mmHg 43%
    14:00 +19°C° 0.1 mm 2 mps 649 mmHg 45%
    15:00 +19°C° 0.1 mm 2 mps 649 mmHg 47%
    16:00 +19°C° 0.1 mm 1 mps 649 mmHg 54%
    17:00 +18°C° 0.1 mm 1 mps 648 mmHg 62%
    18:00 +15°C° 0.1 mm 1 mps 648 mmHg 69%
    19:00 +14°C° 0 mm 1 mps 648 mmHg 69%
    20:00 +13°C° 0 mm 1 mps 648 mmHg 68%
    21:00 +12°C° 0 mm 1 mps 648 mmHg 67%
    22:00 +13°C° 0 mm 2 mps 648 mmHg 62%
    23:00 +13°C° 0 mm 2 mps 648 mmHg 56%
    Show more